SCP
0 0 0 1 1 0 0 0 0 0 0 0 0 0 0 0 1 1 1 2 2 2 2 2 2 2 1 1 1 1 1 1 1 1 1 1 1 1 1 1 1 1 0
0 0 0 0 1 0 0 0 0 0 0 0 0 0 0 0 1 1 2 2 2 2 2 2 2 2 2 2 1 1 1 1 1 1 1 1 1 1 1 1 1 1 1
1 0 0 0 0 1 0 0 0 0 0 0 0 1 1 1 1 1 2 2 2 2 2 2 2 2 2 2 2 1 1 1 1 1 1 1 1 1 1 1 1 1 1
1 1 1 1 1 1 1 1 1 1 1 1 1 1 1 1 1 1 1 1 1 1 2 2 2 2 2 2 2 1 1 1 1 1 1 1 1 1 1 1 1 1 1
1 1 1 1 1 1 1 1 1 1 1 1 1 1 1 1 1 1 1 1 1 1 1 2 2 2 2 2 2 2 2 2 1 1 1 1 1 1 1 1 1 1 1
1 1 1 1 2 1 1 1 1 1 1 1 1 1 1 0 0 1 1 1 1 1 1 1 2 2 2 2 2 2 2 2 2 2 2 1 1 1 1 1 1 1 1
2 2 2 2 2 1 1 1 1 1 1 1 1 1 1 0 0 0 0 0 1 2 1 1 1 1 1 2 2 2 2 2 2 2 1 1 1 1 1 1 1 1 1
2 2 2 2 2 2 1 1 1 1 1 1 1 1 0 0 0 0 0 0 2 3 2 0 0 1 1 1 1 2 2 2 2 1 1 1 0 0 0 0 0 0 0
2 2 2 2 2 2 2 2 2 2 2 2 1 1 0 0 0 0 0 0 1 2 1 0 0 0 0 0 1 1 2 2 1 1 1 0 0 0 0 0 0 0 0
2 2 2 2 3 3 3 2 2 2 3 3 2 1 1 0 0 0 0 0 0 0 0 0 0 0 0 0 0 1 1 1 1 0 0 0 0 0 0 0 0 0 0
2 2 2 2 3 3 3 2 2 3 3 3 3 2 1 1 0 0 0 0 0 0 0 0 0 0 0 0 0 0 0 0 0 0 0 0 0 0 0 0 0 0 0
2 2 2 2 2 2 2 2 2 3 3 3 3 2 1 1 0 0 0 0 0 0 0 0 0 0 0 0 0 0 0 0 0 0 0 0 0 0 0 0 0 0 0
1 1 1 1 1 1 1 1 1 1 1 1 1 1 1 0 0 0 0 0 0 0 0 0 0 0 0 0 0 0 0 0 0 0 0 0 0 0 0 0 0 0 0
0 0 0 0 0 0 0 0 0 0 0 0 0 0 0 0 0 0 0 0 0 0 0 0 0 0 0 0 0 0 0 0 0 0 0 0 0 0 0 0 0 0 0
0 0 0 0 0 0 0 0 0 0 0 0 0 0 0 0 0 0 0 0 0 0 0 0 0 0 0 0 0 0 0 0 0 0 0 0 0 0 0 0 0 0 0
0 0 0 0 0 0 0 0 0 0 0 0 0 0 0 0 0 0 0 0 0 0 0 0 0 0 0 0 0 0 0 0 0 0 0 0 0 0 0 0 0 0 0
0 0 0 0 0 0 0 0 0 0 0 0 0 0 0 0 0 0 0 0 0 0 0 0 0 0 0 0 0 0 0 0 0 0 0 0 0 0 0 0 0 0 0
0 0 0 0 0 0 0 0 0 0 0 0 0 0 0 0 0 0 0 0 0 0 0 0 0 0 0 0 0 0 0 0 0 0 0 0 0 0 0 0 0 0 0
0 0 0 0 0 0 0 0 0 0 0 0 0 0 0 0 0 0 0 0 0 0 0 0 0 0 0 0 0 0 0 0 0 0 0 0 0 0 0 0 0 0 0
0 0 0 0 0 0 0 0 0 0 0 0 0 0 0 0 0 0 0 0 0 0 0 0 0 0 0 0 0 0 0 0 0 0 0 0 0 0 0 0 0 0 0
0 0 0 0 0 0 0 0 0 0 0 0 0 0 0 0 0 0 0 0 0 0 0 0 0 0 0 0 0 0 0 0 0 0 0 0 0 0 0 0 0 0 0
0 0 0 0 0 0 0 0 0 0 0 0 0 0 0 0 0 0 0 0 0 0 0 0 0 0 0 0 0 0 0 0 0 0 0 0 0 0 0 0 0 0 0
0 0 0 0 0 0 0 0 0 0 0 0 0 0 0 0 0 0 0 0 0 0 0 0 0 0 0 0 0 0 0 0 0 0 0 0 0 0 0 0 0 0 0
0 0 0 0 0 0 0 0 0 0 0 0 0 0 0 0 0 0 0 0 0 0 0 0 0 0 0 0 0 0 0 0 0 0 0 0 0 0 0 0 0 0 0
0 0 0 0 0 -0 0 0 0 0 0 0 0 0 0 0 0 0 0 0 0 0 0 0 0 0 0 0 0 0 0 0 0 0 0 0 0 0 0 0 0 0 0
0 0 0 0 0 -0 -0 -0 -0 -0 -0 0 0 0 0 0 0 0 0 0 0 0 0 0 0 0 0 0 0 0 0 0 0 0 0 0 0 0 0 0 0 0 0
Wind_Speed
5 5 4 4 4 3 4 4 4 4 5 5 5 5 5 6 7 6 6 15 16 16 17 18 17 17 16 15 14 14 13 12 12 11 10 9 9 9 8 8 7 6 6
5 5 5 5 5 4 4 4 5 4 4 3 3 2 3 4 6 6 5 10 16 16 17 18 18 17 17 16 15 14 13 13 12 11 11 10 9 9 8 8 7 6 6
6 5 5 5 5 5 5 4 3 2 1 1 0 0 2 3 5 6 6 5 7 13 16 16 16 17 17 17 16 15 14 13 13 12 11 10 10 9 8 7 7 6 6
6 5 5 5 4 4 3 3 2 2 1 0 0 0 1 1 3 4 5 5 5 6 10 15 15 15 17 17 16 16 15 14 13 12 11 11 10 9 8 7 7 7 7
7 5 4 4 4 3 2 2 1 1 1 1 1 1 1 1 2 3 4 5 5 5 5 10 14 15 16 17 17 16 15 14 13 12 11 10 9 8 7 6 6 7 7
6 5 3 3 3 2 2 1 1 1 1 1 1 1 1 0 1 2 3 3 4 5 5 6 7 9 14 14 15 15 14 13 11 10 10 8 7 5 4 4 5 6 7
5 4 3 2 2 2 2 2 1 1 1 1 1 1 1 0 0 1 2 2 3 4 4 5 4 3 5 10 11 12 12 12 10 9 7 6 5 3 1 1 3 5 6
3 3 3 2 2 1 1 1 1 1 0 1 2 1 1 1 1 0 0 1 2 1 2 4 3 3 2 2 5 9 8 8 8 7 6 6 4 3 2 3 4 6 7
5 4 5 3 2 2 1 1 1 3 2 2 2 3 2 3 1 0 0 0 0 0 0 0 2 3 3 3 3 6 9 9 8 8 7 5 3 3 3 5 7 9 10
7 6 5 5 4 3 2 1 2 0 1 2 1 1 2 2 2 1 0 1 1 1 0 1 1 3 4 4 5 10 11 10 9 7 5 3 2 4 5 7 9 10 12
8 8 7 7 6 5 5 5 4 3 1 1 0 0 0 0 1 2 1 0 1 1 1 1 2 2 4 4 4 8 10 9 8 5 3 1 3 5 6 8 9 11 12
7 9 9 8 7 6 6 6 6 7 5 5 4 3 2 1 0 1 1 1 1 1 2 3 2 2 3 4 5 9 9 7 5 3 2 3 5 7 8 9 10 11 12
7 9 8 9 8 8 8 7 8 8 8 8 7 5 5 4 2 1 1 1 2 2 3 3 3 2 3 3 3 8 6 4 4 5 6 7 8 9 10 10 11 12 13
8 8 10 10 10 10 9 8 8 8 8 9 9 7 6 5 5 4 2 1 2 3 4 3 3 3 3 3 3 4 2 5 7 9 10 11 12 12 12 13 13 14 14
8 10 11 11 10 10 9 8 8 8 8 8 7 7 6 5 5 5 4 3 2 2 2 2 2 2 1 1 2 2 3 7 10 10 11 12 13 14 15 15 15 15 15
10 10 11 10 10 9 9 8 7 7 8 6 5 7 6 4 5 5 5 4 4 2 1 1 1 1 0 0 2 2 4 8 9 11 12 12 13 14 15 15 16 16 16
10 10 9 9 9 9 8 7 7 6 7 6 6 6 6 5 5 4 4 4 4 3 2 1 1 1 2 2 2 2 3 3 4 10 11 11 11 12 13 14 15 15 15
9 9 9 9 9 8 7 7 6 6 6 6 5 5 5 4 5 4 4 4 3 2 2 1 2 2 2 2 2 3 3 3 4 8 10 10 10 10 11 12 12 13 13
8 8 8 9 8 7 7 6 6 5 5 4 4 3 3 3 4 3 3 3 2 3 1 1 2 2 2 2 2 3 3 3 5 6 8 7 9 10 11 11 11 11 11
7 7 7 7 7 7 7 6 6 6 5 5 4 3 2 2 2 3 3 3 3 3 2 2 2 2 2 3 2 2 3 3 4 5 5 6 7 9 10 10 11 11 10
6 5 6 6 5 5 6 6 5 5 5 5 5 4 2 2 2 2 2 2 2 2 2 2 2 2 3 2 2 2 3 4 4 2 3 4 4 4 5 8 9 9 8
4 5 5 5 5 5 8 10 6 4 4 4 4 4 3 4 6 6 7 6 3 2 2 1 2 2 4 3 2 2 2 2 4 3 2 5 3 4 4 4 6 8 8
3 3 3 4 4 5 9 10 10 5 4 4 3 3 2 3 4 4 7 8 8 7 4 3 3 4 4 4 3 3 3 3 4 4 1 4 3 3 4 4 7 7 7
1 1 1 2 2 4 8 10 9 6 5 5 4 2 1 2 3 4 4 5 5 5 5 2 4 6 7 6 5 4 3 4 5 4 2 3 3 3 4 4 6 6 7
1 1 1 2 2 3 6 8 8 5 5 6 5 3 2 1 4 5 4 5 6 6 6 7 8 8 11 11 6 2 2 1 3 4 1 1 3 3 3 3 4 7 9
1 1 1 1 2 1 5 7 7 3 4 4 5 4 4 4 6 6 3 3 6 6 7 9 9 9 6 6 5 5 4 2 2 3 2 0 2 2 4 3 3 4 5
Wind_Direction
187 188 192 192 197 199 206 217 224 231 235 239 240 232 217 208 198 190 196 195 191 189 188 187 185 183 182 182 181 179 177 175 172 170 167 164 162 160 158 156 152 150 146
184 185 191 193 199 202 209 214 218 228 234 228 235 221 202 193 186 185 192 195 195 192 193 193 190 189 189 188 187 185 182 179 177 174 171 169 168 168 168 166 164 163 162
183 184 189 194 200 199 200 201 204 206 208 204 249 210 159 174 178 184 187 187 197 200 197 197 194 194 194 193 192 190 188 186 183 179 178 177 176 176 177 177 177 180 183
183 174 178 187 189 181 173 176 182 175 182 162 129 80 132 145 174 180 183 189 192 200 203 201 199 198 198 198 197 196 193 190 187 186 186 186 183 183 183 186 190 196 202
184 175 178 181 173 164 166 180 178 179 187 195 189 145 94 132 167 177 189 197 197 199 202 203 202 202 204 203 202 199 196 195 193 192 191 189 184 182 187 196 205 215 225
180 169 168 167 155 150 165 170 168 134 175 201 203 103 80 155 177 184 198 196 201 203 204 205 201 207 206 205 202 201 198 197 193 189 185 180 173 174 185 208 227 239 247
170 159 152 146 139 156 173 171 144 150 204 160 93 348 338 19 151 204 204 184 199 205 201 202 193 188 201 200 195 196 193 190 187 179 171 156 139 127 134 250 265 270 274
114 121 117 118 117 119 113 133 153 165 180 161 159 168 290 313 292 264 219 186 189 189 197 198 184 170 164 166 179 180 174 168 159 152 133 112 97 74 33 341 317 303 295
90 92 101 100 98 125 155 190 168 172 196 205 179 175 192 226 240 309 295 66 130 142 192 160 158 147 135 120 130 138 129 128 136 126 112 98 72 27 343 324 313 307 303
66 67 71 72 64 58 67 62 72 98 178 203 203 205 187 167 181 210 298 5 35 34 49 123 121 121 123 119 122 125 120 117 120 112 100 76 16 331 320 313 308 304 301
57 59 64 65 62 54 49 47 49 52 62 115 165 194 175 119 173 185 204 168 43 15 35 61 85 101 113 114 116 126 124 118 115 114 105 4 312 309 309 306 302 299 298
56 53 61 64 64 62 57 53 54 56 56 60 55 49 50 62 50 173 185 149 119 24 36 43 63 84 104 114 134 138 132 128 138 160 208 260 288 296 298 296 296 297 296
61 53 59 62 61 62 62 60 61 57 56 63 59 56 50 42 21 25 88 105 88 45 41 39 40 61 97 98 123 135 136 160 201 224 241 257 270 277 280 283 287 290 293
67 66 66 64 62 62 64 63 63 60 58 61 59 55 54 41 37 36 42 78 91 56 44 32 28 39 65 81 116 144 180 218 234 242 249 256 265 270 273 274 277 280 283
73 69 69 67 63 61 61 63 65 61 59 56 55 54 53 41 39 37 38 39 80 91 46 17 28 18 51 113 182 210 230 244 250 255 258 260 263 267 268 269 271 274 275
72 71 67 66 64 61 58 59 60 56 61 53 52 53 47 36 37 34 35 37 44 81 83 348 354 301 311 180 226 243 253 269 271 273 270 269 268 268 268 268 269 271 273
71 71 69 67 63 58 55 57 57 53 57 51 46 50 44 36 34 27 29 35 36 49 77 339 332 335 356 340 321 297 276 270 278 282 281 280 277 273 272 272 271 271 273
70 69 66 64 60 54 49 50 51 46 48 46 41 42 36 40 34 27 31 34 31 40 72 9 324 329 325 314 307 301 298 295 287 288 289 288 287 286 283 280 276 274 275
70 67 65 62 58 51 46 42 45 41 38 37 34 34 24 38 32 24 30 24 13 20 38 29 319 313 306 313 324 312 313 310 307 301 297 299 299 299 297 291 284 280 278
71 65 63 62 59 52 45 38 38 37 27 20 18 22 27 50 49 26 24 11 8 12 11 8 331 318 310 310 339 327 325 318 308 307 311 311 307 312 307 299 292 288 284
70 68 67 60 53 50 38 36 29 30 23 11 3 2 5 37 41 15 2 340 353 351 350 347 327 326 315 324 318 302 305 308 304 294 317 307 308 307 304 303 299 295 292
66 69 69 65 52 43 32 33 32 25 14 8 356 352 0 32 22 13 358 348 336 301 289 284 286 289 283 276 273 281 299 336 314 297 319 298 299 295 292 288 291 298 296
79 79 79 73 54 27 28 25 26 31 14 0 351 350 2 28 27 6 352 353 344 329 292 225 244 261 260 255 259 283 274 256 255 267 297 287 299 296 296 307 316 315 308
105 113 116 100 63 26 27 26 25 30 23 13 10 20 31 352 358 358 345 340 327 318 305 268 239 253 255 253 232 231 245 271 274 267 212 262 295 297 307 320 327 332 320
114 169 160 136 87 15 20 27 31 21 17 5 2 10 19 346 328 348 349 334 324 314 312 316 295 279 274 270 249 217 253 267 302 299 262 223 289 309 314 312 317 331 328
124 126 114 129 123 26 10 21 27 24 10 352 343 340 330 317 314 321 310 307 308 303 319 326 325 324 315 305 277 205 207 209 249 286 281 258 299 341 327 304 304 318 326